^^
Paulen-Weather Station Historical Data
 
Daily Summary for July 05, 2022 Units:  Metric    English   Both
Daily Weekly Monthly Yearly Custom
  Current: High: Low: Average:
Temperature: 12 °C 13 °C 12 °C 12.2 °C
Dew Point: 11 °C 11 °C 11 °C 11 °C
Humidity: 92% 93% 90% 92%
Wind Speed: 7km/h 12km/h 6km/h 8.5km/h
Wind Gust: 6km/h 9km/h - -
WindWSW - - WSW
Pressure: 1010.63 hPa 1010.7 hPa 1010.26 hPa -
Precipitation: 0 mm      
Historical Graphs
 
 
Tabular Data for July 05, 2022
Time Temperature Dew Point Pressure Wind Wind Speed Wind Gust Humidity Rainfall Rate (Hourly) solar
00:04 13 °C 11 °C 1010.4 hPa W 6 km/h 5 km/h 90% 0.2 mm 0 W/m2
00:09 13 °C 11 °C 1010.43 hPa WSW 8 km/h 6 km/h 91% 0.2 mm 0 W/m2
00:14 13 °C 11 °C 1010.36 hPa W 8 km/h 6 km/h 91% 0.2 mm 0 W/m2
00:19 13 °C 11 °C 1010.36 hPa W 8 km/h 6 km/h 91% 0.2 mm 0 W/m2
00:24 13 °C 11 °C 1010.36 hPa WSW 9 km/h 7 km/h 91% 0.2 mm 0 W/m2
00:29 13 °C 11 °C 1010.3 hPa WSW 9 km/h 7 km/h 92% 0.2 mm 0 W/m2
00:34 13 °C 11 °C 1010.33 hPa WSW 10 km/h 9 km/h 92% 0.2 mm 0 W/m2
00:39 13 °C 11 °C 1010.33 hPa SW 7 km/h 5 km/h 92% 0.2 mm 0 W/m2
00:44 12 °C 11 °C 1010.33 hPa WSW 9 km/h 6 km/h 92% 0.2 mm 0 W/m2
00:49 12 °C 11 °C 1010.33 hPa WSW 12 km/h 8 km/h 92% 0.2 mm 0 W/m2
00:54 12 °C 11 °C 1010.36 hPa W 9 km/h 7 km/h 92% 0.2 mm 0 W/m2
00:59 12 °C 11 °C 1010.4 hPa W 10 km/h 7 km/h 92% 0.2 mm 0 W/m2
01:04 12 °C 11 °C 1010.36 hPa WSW 6 km/h 6 km/h 92% 0 mm 0 W/m2
01:09 12 °C 11 °C 1010.4 hPa W 8 km/h 7 km/h 92% 0 mm 0 W/m2
01:14 12 °C 11 °C 1010.4 hPa WSW 7 km/h 6 km/h 92% 0 mm 0 W/m2
01:19 12 °C 11 °C 1010.36 hPa WSW 8 km/h 8 km/h 92% 0 mm 0 W/m2
01:24 12 °C 11 °C 1010.26 hPa W 8 km/h 6 km/h 92% 0 mm 0 W/m2
01:29 12 °C 11 °C 1010.3 hPa WSW 9 km/h 5 km/h 92% 0 mm 0 W/m2
01:34 12 °C 11 °C 1010.33 hPa W 10 km/h 7 km/h 92% 0 mm 0 W/m2
01:39 12 °C 11 °C 1010.4 hPa WSW 7 km/h 7 km/h 92% 0 mm 0 W/m2
01:44 12 °C 11 °C 1010.43 hPa WSW 11 km/h 8 km/h 93% 0 mm 0 W/m2
01:49 12 °C 11 °C 1010.46 hPa WSW 8 km/h 5 km/h 93% 0 mm 0 W/m2
01:54 12 °C 11 °C 1010.33 hPa W 8 km/h 6 km/h 93% 0 mm 0 W/m2
01:59 12 °C 11 °C 1010.36 hPa W 10 km/h 7 km/h 93% 0 mm 0 W/m2
02:04 12 °C 11 °C 1010.4 hPa WSW 9 km/h 9 km/h 92% 0 mm 0 W/m2
02:09 12 °C 11 °C 1010.33 hPa W 8 km/h 7 km/h 92% 0 mm 0 W/m2
02:14 12 °C 11 °C 1010.36 hPa W 9 km/h 8 km/h 92% 0 mm 0 W/m2
02:19 12 °C 11 °C 1010.43 hPa WSW 8 km/h 6 km/h 92% 0 mm 0 W/m2
02:24 12 °C 11 °C 1010.4 hPa W 6 km/h 5 km/h 92% 0 mm 0 W/m2
02:29 12 °C 11 °C 1010.46 hPa WSW 9 km/h 6 km/h 92% 0 mm 0 W/m2
02:34 12 °C 11 °C 1010.5 hPa WSW 8 km/h 7 km/h 91% 0 mm 0 W/m2
02:39 12 °C 11 °C 1010.53 hPa SW 10 km/h 7 km/h 91% 0 mm 0 W/m2
02:44 12 °C 11 °C 1010.63 hPa WSW 9 km/h 7 km/h 91% 0 mm 0 W/m2
02:49 12 °C 11 °C 1010.6 hPa WSW 10 km/h 8 km/h 91% 0 mm 0 W/m2
02:54 12 °C 11 °C 1010.63 hPa SW 9 km/h 6 km/h 91% 0 mm 0 W/m2
02:59 12 °C 11 °C 1010.63 hPa WSW 11 km/h 7 km/h 91% 0 mm 0 W/m2
03:04 12 °C 11 °C 1010.7 hPa WSW 7 km/h 7 km/h 91% 0 mm 0 W/m2
03:09 12 °C 11 °C 1010.67 hPa WSW 9 km/h 7 km/h 92% 0 mm 0 W/m2
03:14 12 °C 11 °C 1010.67 hPa WSW 7 km/h 6 km/h 92% 0 mm 0 W/m2
03:19 12 °C 11 °C 1010.67 hPa WSW 9 km/h 7 km/h 92% 0 mm 0 W/m2
03:24 12 °C 11 °C 1010.63 hPa WSW 7 km/h 6 km/h 92% 0 mm 0 W/m2
Compliments of Weather Underground - 2 mb